User: anonymous   Login
Location: Lafig�re
(44.4503°N, 4.0357°E)
Time: 02:11:16
(UTC+00:00)
Language:

Cosmos 2298 Rocket - Orbit

View from above orbital plane
View from above orbital plane
View from above satellite
View from above satellite

Ground track
Ground track

The orbit data is extracted from the following two-line orbital elements,

1 23432U 94083B   20337.93708347  .00000002  00000-0  10145-4 0  9991
2 23432  74.0305 145.0586 0004642  37.3689  72.8983 14.33546928357339
Epoch (UTC): 02 December 2020 22:29:24
Eccentricity: 0.0004642
inclination: 74.0305°
perigee height: 776 km
apogee height: 783 km
right ascension of ascending node: 145.0586°
argument of perigee: 37.3689°
revolutions per day: 14.33546928
mean anomaly at epoch: 72.8983°
orbit number at epoch: 35733

The dashed part of the orbit path shows where the satellite is in the earth's shadow,  

DLR